Weather History for Champaign, IL

Change the Weather History Date:

Thursday, October 21, 2010

  Actual Average Record
Temperature  
Mean Temperature 50 °F 52 °F  
Max Temperature 62 °F 63 °F 81 °F (2007)
Min Temperature 37 °F 41 °F 28 °F (2013)
Degree Days  
Heating Degree Days 15 13  
Month to date heating degree days 176 217  
Since 1 July heating degree days 218 309  
Cooling Degree Days 0 0  
Month to date cooling degree days 17 14  
Year to date cooling degree days 1326 939  
Moisture  
Dew Point 31 °F    
Average Humidity 56    
Maximum Humidity 85    
Minimum Humidity 27    
Precipitation  
Precipitation 0.00 in 0.11 in 0.99 in (1949)
Month to date precipitation 0.49 2.16  
Year to date precipitation 27.62 32.72  
Sea Level Pressure  
Sea Level Pressure 29.98 in    
Wind  
Wind Speed 8 mph (NW)    
Max Wind Speed 21 mph    
Max Gust Speed 25 mph    
Visibility 10 miles    
Events      
T = Trace of Precipitation, MM = Missing Value Source: NWS Daily Summary

Daily Weather History Graph

Daily Weather History Graph

Search for Another Location

Airport:

Trip Planner

Search our weather history database for the weather conditions in past years. The results will help you decide how hot, cold, wet, or windy it might be!

Date:

Astronomy

Oct. 21, 2010 Rise Set
Actual Time 7:09 AM CDT 6:04 PM CDT
Civil Twilight 6:42 AM CDT 6:32 PM CDT
Nautical Twilight 6:10 AM CDT 7:03 PM CDT
Astronomical Twilight 5:39 AM CDT 7:35 PM CDT
Moon 5:05 PM CDT (10/21) 5:49 AM CDT (10/21)
Length of Visible Light 11h 49m
Length of Day
10h 54m
Waxing Gibbous, 98% of the Moon is Illuminated
Oct 21
Waxing Gibbous
Oct 22
Full
Oct 30
Last Quarter
Nov 5
New
Nov 13
First Quarter

Hourly Weather History & Observations

Time (CDT) Temp. Windchill Dew Point Humidity Pressure Visibility Wind Dir Wind Speed Gust Speed Precip Events Conditions
12:53 AM 54.0 °F - 37.9 °F 55% 29.81 in 10.0 mi West 12.7 mph - N/A   Partly Cloudy
1:53 AM 48.9 °F - 37.9 °F 66% 29.82 in 10.0 mi West 8.1 mph - N/A   Partly Cloudy
2:53 AM 43.0 °F 38.2 °F 36.0 °F 76% 29.84 in 10.0 mi WNW 8.1 mph - N/A   Clear
3:53 AM 43.0 °F 38.2 °F 35.1 °F 74% 29.85 in 10.0 mi NW 8.1 mph - N/A   Clear
4:53 AM 43.0 °F 38.8 °F 35.1 °F 74% 29.87 in 10.0 mi WNW 6.9 mph - N/A   Clear
5:53 AM 39.0 °F 34.0 °F 34.0 °F 82% 29.91 in 10.0 mi NW 6.9 mph - N/A   Clear
6:53 AM 37.0 °F 31.0 °F 34.0 °F 89% 29.93 in 10.0 mi NNW 8.1 mph - N/A   Partly Cloudy
7:53 AM 42.1 °F 37.1 °F 36.0 °F 79% 29.96 in 10.0 mi NW 8.1 mph - N/A   Clear
8:53 AM 48.9 °F - 37.0 °F 64% 29.98 in 10.0 mi NW 11.5 mph - N/A   Clear
9:53 AM 53.1 °F - 34.0 °F 48% 30.01 in 10.0 mi NNW 16.1 mph - N/A   Clear
10:53 AM 55.9 °F - 30.9 °F 39% 30.02 in 10.0 mi NW 13.8 mph - N/A   Clear
11:53 AM 57.9 °F - 30.0 °F 35% 30.02 in 10.0 mi NW 12.7 mph - N/A   Clear
12:53 PM 59.0 °F - 28.9 °F 32% 30.02 in 10.0 mi WNW 15.0 mph 21.9 mph N/A   Clear
1:53 PM 61.0 °F - 28.0 °F 29% 30.01 in 10.0 mi WNW 12.7 mph 24.2 mph N/A   Clear
2:53 PM 60.1 °F - 27.0 °F 28% 30.00 in 10.0 mi NW 11.5 mph 21.9 mph N/A   Clear
3:53 PM 60.1 °F - 26.1 °F 27% 30.00 in 10.0 mi WNW 15.0 mph - N/A   Clear
4:53 PM 59.0 °F - 27.0 °F 29% 30.01 in 10.0 mi NW 12.7 mph - N/A   Clear
5:53 PM 55.0 °F - 27.0 °F 34% 30.02 in 10.0 mi WNW 6.9 mph - N/A   Clear
6:53 PM 45.0 °F 41.8 °F 28.0 °F 52% 30.04 in 10.0 mi NW 5.8 mph - N/A   Clear
7:53 PM 44.1 °F 40.8 °F 28.0 °F 53% 30.05 in 10.0 mi NW 5.8 mph - N/A   Partly Cloudy
8:53 PM 39.9 °F - 26.1 °F 58% 30.06 in 10.0 mi Calm Calm - N/A   Clear
9:53 PM 44.1 °F 42.5 °F 28.0 °F 53% 30.07 in 10.0 mi WNW 3.5 mph - N/A   Partly Cloudy
10:53 PM 41.0 °F - 27.0 °F 57% 30.09 in 10.0 mi Calm Calm - N/A   Partly Cloudy
11:53 PM 39.9 °F 37.8 °F 27.0 °F 60% 30.09 in 10.0 mi West 3.5 mph - N/A   Partly Cloudy